Year,Month,Day,Hour,Minute,Value (Times are PST for windspeed in km/hr)
2020,08,06,00,00,0.60
2020,08,06,00,01,0.00
2020,08,06,00,02,0.00
2020,08,06,00,03,0.00
2020,08,06,00,04,0.00
2020,08,06,00,05,0.10
2020,08,06,00,06,2.80
2020,08,06,00,07,5.60
2020,08,06,00,08,3.90
2020,08,06,00,09,6.30
2020,08,06,00,10,3.60
2020,08,06,00,11,6.60
2020,08,06,00,12,4.70
2020,08,06,00,13,4.60
2020,08,06,00,14,3.90
2020,08,06,00,15,3.00
2020,08,06,00,16,1.30
2020,08,06,00,17,2.10
2020,08,06,00,18,0.00
2020,08,06,00,19,0.00
2020,08,06,00,20,0.00
2020,08,06,00,21,0.00
2020,08,06,00,22,1.80
2020,08,06,00,23,4.80
2020,08,06,00,24,8.10
2020,08,06,00,25,8.70
2020,08,06,00,26,4.80
2020,08,06,00,27,4.30
2020,08,06,00,28,1.20
2020,08,06,00,29,4.40
2020,08,06,00,30,6.30
2020,08,06,00,31,3.00
2020,08,06,00,32,4.70
2020,08,06,00,33,7.80
2020,08,06,00,34,4.30
2020,08,06,00,35,5.00
2020,08,06,00,36,1.00
2020,08,06,00,37,2.90
2020,08,06,00,38,6.10
2020,08,06,00,39,4.70
2020,08,06,00,40,6.30
2020,08,06,00,41,4.00
2020,08,06,00,42,4.90
2020,08,06,00,43,5.60
2020,08,06,00,44,1.90
2020,08,06,00,45,2.20
2020,08,06,00,46,3.10
2020,08,06,00,47,2.90
2020,08,06,00,48,3.80
2020,08,06,00,49,4.80
2020,08,06,00,50,3.90
2020,08,06,00,51,6.30
2020,08,06,00,52,5.00
2020,08,06,00,53,6.80
2020,08,06,00,54,4.60
2020,08,06,00,55,5.20
2020,08,06,00,56,4.00
2020,08,06,00,57,3.30
2020,08,06,00,58,3.90
2020,08,06,00,59,2.00
2020,08,06,01,00,2.10
2020,08,06,01,01,4.00
2020,08,06,01,02,4.90
2020,08,06,01,03,1.00
2020,08,06,01,04,0.10
2020,08,06,01,05,0.00
2020,08,06,01,06,0.00
2020,08,06,01,07,0.60
2020,08,06,01,08,0.10
2020,08,06,01,09,0.00
2020,08,06,01,10,0.00
2020,08,06,01,11,0.00
2020,08,06,01,12,0.00
2020,08,06,01,13,0.20
2020,08,06,01,14,4.80
2020,08,06,01,15,3.00
2020,08,06,01,16,3.80
2020,08,06,01,17,3.20
2020,08,06,01,18,1.30
2020,08,06,01,19,0.00
2020,08,06,01,20,0.00
2020,08,06,01,21,0.00
2020,08,06,01,22,0.00
2020,08,06,01,23,0.80
2020,08,06,01,24,2.20
2020,08,06,01,25,1.20
2020,08,06,01,26,4.20
2020,08,06,01,27,0.50
2020,08,06,01,28,0.00
2020,08,06,01,29,0.00
2020,08,06,01,30,0.00
2020,08,06,01,31,0.00
2020,08,06,01,32,0.00
2020,08,06,01,33,0.00
2020,08,06,01,34,0.00
2020,08,06,01,35,0.00
2020,08,06,01,36,0.00
2020,08,06,01,37,0.00
2020,08,06,01,38,0.00
2020,08,06,01,39,2.20
2020,08,06,01,40,3.60
2020,08,06,01,41,3.10
2020,08,06,01,42,0.20
2020,08,06,01,43,0.00
2020,08,06,01,44,0.00
2020,08,06,01,45,0.00
2020,08,06,01,46,0.00
2020,08,06,01,47,3.30
2020,08,06,01,48,4.70
2020,08,06,01,49,1.40
2020,08,06,01,50,1.20
2020,08,06,01,51,3.70
2020,08,06,01,52,3.20
2020,08,06,01,53,1.20
2020,08,06,01,54,2.00
2020,08,06,01,55,4.50
2020,08,06,01,56,1.90
2020,08,06,01,57,3.10
2020,08,06,01,58,0.00
2020,08,06,01,59,0.00
2020,08,06,02,00,0.00
2020,08,06,02,01,0.00
2020,08,06,02,02,3.60
2020,08,06,02,03,5.80
2020,08,06,02,04,3.90
2020,08,06,02,05,0.70
2020,08,06,02,06,0.00
2020,08,06,02,07,0.00
2020,08,06,02,08,0.00
2020,08,06,02,09,0.00
2020,08,06,02,10,0.00
2020,08,06,02,11,0.00
2020,08,06,02,12,0.00
2020,08,06,02,13,0.00
2020,08,06,02,14,2.00
2020,08,06,02,15,7.20
2020,08,06,02,16,6.70
2020,08,06,02,17,4.70
2020,08,06,02,18,1.10
2020,08,06,02,19,0.00
2020,08,06,02,20,0.00
2020,08,06,02,21,1.70
2020,08,06,02,22,4.70
2020,08,06,02,23,3.00
2020,08,06,02,24,1.50
2020,08,06,02,25,4.90
2020,08,06,02,26,5.00
2020,08,06,02,27,6.50
2020,08,06,02,28,4.40
2020,08,06,02,29,5.30
2020,08,06,02,30,5.20
2020,08,06,02,31,0.20
2020,08,06,02,32,6.40
2020,08,06,02,33,3.00
2020,08,06,02,34,7.50
2020,08,06,02,35,7.30
2020,08,06,02,36,5.80
2020,08,06,02,37,5.00
2020,08,06,02,38,2.70
2020,08,06,02,39,7.00
2020,08,06,02,40,5.70
2020,08,06,02,41,6.50
2020,08,06,02,42,4.70
2020,08,06,02,43,6.40
2020,08,06,02,44,3.90
2020,08,06,02,45,4.40
2020,08,06,02,46,5.70
2020,08,06,02,47,4.60
2020,08,06,02,48,5.10
2020,08,06,02,49,6.60
2020,08,06,02,50,0.60
2020,08,06,02,51,1.50
2020,08,06,02,52,6.10
2020,08,06,02,53,9.00
2020,08,06,02,54,5.00
2020,08,06,02,55,4.40
2020,08,06,02,56,2.70
2020,08,06,02,57,3.40
2020,08,06,02,58,2.90
2020,08,06,02,59,2.80
2020,08,06,03,00,5.30
2020,08,06,03,01,5.40
2020,08,06,03,02,4.30
2020,08,06,03,03,3.10
2020,08,06,03,04,0.00
2020,08,06,03,05,0.60
2020,08,06,03,06,3.90
2020,08,06,03,07,4.50
2020,08,06,03,08,0.00
2020,08,06,03,09,0.00
2020,08,06,03,10,1.30
2020,08,06,03,11,3.10
2020,08,06,03,12,2.30
2020,08,06,03,13,0.60
2020,08,06,03,14,0.00
2020,08,06,03,15,0.00
2020,08,06,03,16,2.20
2020,08,06,03,17,0.80
2020,08,06,03,18,0.10
2020,08,06,03,19,0.80
2020,08,06,03,20,0.00
2020,08,06,03,21,0.00
2020,08,06,03,22,0.00
2020,08,06,03,23,0.00
2020,08,06,03,24,0.00
2020,08,06,03,25,0.00
2020,08,06,03,26,0.00
2020,08,06,03,27,0.00
2020,08,06,03,28,0.00
2020,08,06,03,29,0.00
2020,08,06,03,30,0.00
2020,08,06,03,31,0.00
2020,08,06,03,32,0.00
2020,08,06,03,33,0.00
2020,08,06,03,34,0.00
2020,08,06,03,35,0.00
2020,08,06,03,36,0.30
2020,08,06,03,37,0.20
2020,08,06,03,38,0.30
2020,08,06,03,39,0.00
2020,08,06,03,40,0.00
2020,08,06,03,41,0.00
2020,08,06,03,42,0.00
2020,08,06,03,43,0.00
2020,08,06,03,44,0.00
2020,08,06,03,45,0.00
2020,08,06,03,46,0.00
2020,08,06,03,47,0.00
2020,08,06,03,48,0.00
2020,08,06,03,49,0.00
2020,08,06,03,50,0.00
2020,08,06,03,51,2.80
2020,08,06,03,52,0.80
2020,08,06,03,53,0.00
2020,08,06,03,54,0.00
2020,08,06,03,55,0.00
2020,08,06,03,56,1.40
2020,08,06,03,57,0.80
2020,08,06,03,58,0.80
2020,08,06,03,59,0.00
2020,08,06,04,00,0.10
2020,08,06,04,01,0.00
2020,08,06,04,02,1.30
2020,08,06,04,03,1.30
2020,08,06,04,04,0.00
2020,08,06,04,05,0.00
2020,08,06,04,06,0.00
2020,08,06,04,07,0.00
2020,08,06,04,08,0.00
2020,08,06,04,09,3.90
2020,08,06,04,10,3.70
2020,08,06,04,11,0.00
2020,08,06,04,12,0.60
2020,08,06,04,13,4.70
2020,08,06,04,14,1.20
2020,08,06,04,15,1.00
2020,08,06,04,16,3.20
2020,08,06,04,17,3.80
2020,08,06,04,18,5.40
2020,08,06,04,19,2.70
2020,08,06,04,20,0.90
2020,08,06,04,21,0.00
2020,08,06,04,22,0.00
2020,08,06,04,23,0.00
2020,08,06,04,24,1.80
2020,08,06,04,25,0.00
2020,08,06,04,26,0.00
2020,08,06,04,27,0.00
2020,08,06,04,28,0.00
2020,08,06,04,29,0.00
2020,08,06,04,30,0.00
2020,08,06,04,31,0.00
2020,08,06,04,32,0.00
2020,08,06,04,33,0.00
2020,08,06,04,34,0.00
2020,08,06,04,35,0.00
2020,08,06,04,36,0.00
2020,08,06,04,37,0.00
2020,08,06,04,38,0.00
2020,08,06,04,39,0.00
2020,08,06,04,40,0.00
2020,08,06,04,41,0.00
2020,08,06,04,42,0.00
2020,08,06,04,43,0.00
2020,08,06,04,44,0.00
2020,08,06,04,45,2.60
2020,08,06,04,46,2.50
2020,08,06,04,47,4.00
2020,08,06,04,48,3.50
2020,08,06,04,49,3.90
2020,08,06,04,50,3.90
2020,08,06,04,51,3.40
2020,08,06,04,52,5.00
2020,08,06,04,53,4.10
2020,08,06,04,54,6.70
2020,08,06,04,55,4.00
2020,08,06,04,56,4.60
2020,08,06,04,57,8.00
2020,08,06,04,58,5.20
2020,08,06,04,59,4.40
2020,08,06,05,00,4.70
2020,08,06,05,01,5.80
2020,08,06,05,02,3.80
2020,08,06,05,03,5.60
2020,08,06,05,04,4.50
2020,08,06,05,05,3.80
2020,08,06,05,06,3.40
2020,08,06,05,07,2.20
2020,08,06,05,08,4.30
2020,08,06,05,09,8.40
2020,08,06,05,10,7.10
2020,08,06,05,11,5.80
2020,08,06,05,12,3.60
2020,08,06,05,13,3.70
2020,08,06,05,14,4.40
2020,08,06,05,15,4.20
2020,08,06,05,16,4.70
2020,08,06,05,17,5.60
2020,08,06,05,18,5.20
2020,08,06,05,19,5.90
2020,08,06,05,20,7.60
2020,08,06,05,21,4.80
2020,08,06,05,22,4.70
2020,08,06,05,23,5.60
2020,08,06,05,24,6.00
2020,08,06,05,25,4.30
2020,08,06,05,26,4.40
2020,08,06,05,27,5.30
2020,08,06,05,28,6.30
2020,08,06,05,29,5.40
2020,08,06,05,30,4.00
2020,08,06,05,31,5.70
2020,08,06,05,32,6.80
2020,08,06,05,33,7.30
2020,08,06,05,34,5.70
2020,08,06,05,35,4.50
2020,08,06,05,36,4.70
2020,08,06,05,37,4.00
2020,08,06,05,38,5.50
2020,08,06,05,39,4.20
2020,08,06,05,40,5.20
2020,08,06,05,41,4.40
2020,08,06,05,42,6.60
2020,08,06,05,43,4.10
2020,08,06,05,44,3.20
2020,08,06,05,45,3.90
2020,08,06,05,46,5.40
2020,08,06,05,47,3.50
2020,08,06,05,48,0.00
2020,08,06,05,49,1.00
2020,08,06,05,50,2.60
2020,08,06,05,51,3.30
2020,08,06,05,52,3.50
2020,08,06,05,53,4.30
2020,08,06,05,54,6.40
2020,08,06,05,55,5.90
2020,08,06,05,56,4.70
2020,08,06,05,57,4.10
2020,08,06,05,58,7.70
2020,08,06,05,59,3.40
2020,08,06,06,00,3.30
2020,08,06,06,01,4.50
2020,08,06,06,02,3.20
2020,08,06,06,03,3.40
2020,08,06,06,04,4.10
2020,08,06,06,05,4.90
2020,08,06,06,06,6.20
2020,08,06,06,07,5.30
2020,08,06,06,08,4.50
2020,08,06,06,09,4.00
2020,08,06,06,10,4.20
2020,08,06,06,11,6.20
2020,08,06,06,12,4.70
2020,08,06,06,13,3.40
2020,08,06,06,14,3.10
2020,08,06,06,15,0.60
2020,08,06,06,16,3.40
2020,08,06,06,17,6.10
2020,08,06,06,18,7.10
2020,08,06,06,19,3.20
2020,08,06,06,20,3.90
2020,08,06,06,21,8.10
2020,08,06,06,22,10.10
2020,08,06,06,23,4.90
2020,08,06,06,24,2.20
2020,08,06,06,25,5.80
2020,08,06,06,26,5.20
2020,08,06,06,27,3.10
2020,08,06,06,28,0.60
2020,08,06,06,29,0.80
2020,08,06,06,30,0.00
2020,08,06,06,31,0.00
2020,08,06,06,32,0.00
2020,08,06,06,33,0.00
2020,08,06,06,34,0.00
2020,08,06,06,35,0.60
2020,08,06,06,36,0.20
2020,08,06,06,37,0.00
2020,08,06,06,38,0.00
2020,08,06,06,39,1.10
2020,08,06,06,40,2.50
2020,08,06,06,41,0.00
2020,08,06,06,42,0.00
2020,08,06,06,43,0.00
2020,08,06,06,44,1.60
2020,08,06,06,45,2.20
2020,08,06,06,46,2.40
2020,08,06,06,47,0.00
2020,08,06,06,48,0.00
2020,08,06,06,49,0.00
2020,08,06,06,50,0.60
2020,08,06,06,51,0.00
2020,08,06,06,52,1.00
2020,08,06,06,53,2.00
2020,08,06,06,54,1.50
2020,08,06,06,55,0.00
2020,08,06,06,56,0.00
2020,08,06,06,57,1.90
2020,08,06,06,58,5.80
2020,08,06,06,59,4.60
2020,08,06,07,00,2.00
2020,08,06,07,01,3.30
2020,08,06,07,02,4.30
2020,08,06,07,03,2.50
2020,08,06,07,04,0.30
2020,08,06,07,05,1.10
2020,08,06,07,06,4.30
2020,08,06,07,07,1.20
2020,08,06,07,08,1.40
2020,08,06,07,09,3.10
2020,08,06,07,10,1.30
2020,08,06,07,11,0.70
2020,08,06,07,12,1.00
2020,08,06,07,13,2.80
2020,08,06,07,14,3.10
2020,08,06,07,15,1.20
2020,08,06,07,16,0.20
2020,08,06,07,17,2.40
2020,08,06,07,18,0.80
2020,08,06,07,19,0.70
2020,08,06,07,20,1.00
2020,08,06,07,21,4.70
2020,08,06,07,22,4.50
2020,08,06,07,23,3.80
2020,08,06,07,24,2.40
2020,08,06,07,25,6.00
2020,08,06,07,26,5.60
2020,08,06,07,27,6.30
2020,08,06,07,28,6.30
2020,08,06,07,29,6.80
2020,08,06,07,30,6.50
2020,08,06,07,31,7.40
2020,08,06,07,32,5.60
2020,08,06,07,33,8.90
2020,08,06,07,34,5.80
2020,08,06,07,35,8.00
2020,08,06,07,36,5.40
2020,08,06,07,37,10.90
2020,08,06,07,38,10.80
2020,08,06,07,39,7.20
2020,08,06,07,40,4.80
2020,08,06,07,41,5.80
2020,08,06,07,42,8.40
2020,08,06,07,43,7.60
2020,08,06,07,44,7.90
2020,08,06,07,45,9.90
2020,08,06,07,46,7.30
2020,08,06,07,47,6.00
2020,08,06,07,48,6.80
2020,08,06,07,49,1.90
2020,08,06,07,50,2.90
2020,08,06,07,51,5.10
2020,08,06,07,52,3.30
2020,08,06,07,53,2.50
2020,08,06,07,54,2.70
2020,08,06,07,55,0.00
2020,08,06,07,56,1.40
2020,08,06,07,57,5.20
2020,08,06,07,58,4.70
2020,08,06,07,59,1.10
2020,08,06,08,00,0.00
2020,08,06,08,01,0.00
2020,08,06,08,02,4.60
2020,08,06,08,03,12.50
2020,08,06,08,04,13.00
2020,08,06,08,05,11.70
2020,08,06,08,06,4.70
2020,08,06,08,07,11.00
2020,08,06,08,08,5.00
2020,08,06,08,09,5.50
2020,08,06,08,10,1.00
2020,08,06,08,11,8.30
2020,08,06,08,12,8.50
2020,08,06,08,13,3.80
2020,08,06,08,14,5.90
2020,08,06,08,15,4.00
2020,08,06,08,16,5.70
2020,08,06,08,17,8.50
2020,08,06,08,18,1.80
2020,08,06,08,19,0.90
2020,08,06,08,20,1.50
2020,08,06,08,21,6.70
2020,08,06,08,22,11.20
2020,08,06,08,23,13.20
2020,08,06,08,24,14.60
2020,08,06,08,25,13.10
2020,08,06,08,26,10.20
2020,08,06,08,27,13.20
2020,08,06,08,28,15.80
2020,08,06,08,29,12.60
2020,08,06,08,30,10.50
2020,08,06,08,31,7.80
2020,08,06,08,32,7.00
2020,08,06,08,33,7.00
2020,08,06,08,34,12.90
2020,08,06,08,35,8.40
2020,08,06,08,36,8.70
2020,08,06,08,37,6.40
2020,08,06,08,38,7.60
2020,08,06,08,39,10.90
2020,08,06,08,40,10.00
2020,08,06,08,41,8.40
2020,08,06,08,42,7.70
2020,08,06,08,43,10.70
2020,08,06,08,44,11.40
2020,08,06,08,45,9.40
2020,08,06,08,46,10.30
2020,08,06,08,47,8.20
2020,08,06,08,48,6.40
2020,08,06,08,49,10.70
2020,08,06,08,50,16.40
2020,08,06,08,51,3.50
2020,08,06,08,52,13.60
2020,08,06,08,53,11.00
2020,08,06,08,54,11.50
2020,08,06,08,55,6.80
2020,08,06,08,56,6.80
2020,08,06,08,57,8.10
2020,08,06,08,58,8.90
2020,08,06,08,59,7.90
2020,08,06,09,00,7.00
2020,08,06,09,01,6.10
2020,08,06,09,02,10.40
2020,08,06,09,03,8.90
2020,08,06,09,04,8.60
2020,08,06,09,05,11.70
2020,08,06,09,06,10.00
2020,08,06,09,07,6.80
2020,08,06,09,08,9.20
2020,08,06,09,09,10.90
2020,08,06,09,10,10.60
2020,08,06,09,11,11.90
2020,08,06,09,12,12.30
2020,08,06,09,13,12.50
2020,08,06,09,14,20.80
2020,08,06,09,15,15.20
2020,08,06,09,16,8.20
2020,08,06,09,17,8.70
2020,08,06,09,18,6.90
2020,08,06,09,19,5.20
2020,08,06,09,20,7.30
2020,08,06,09,21,11.20
2020,08,06,09,22,15.00
2020,08,06,09,23,8.00
2020,08,06,09,24,6.10
2020,08,06,09,25,7.20
2020,08,06,09,26,8.20
2020,08,06,09,27,6.20
2020,08,06,09,28,9.90
2020,08,06,09,29,8.30
2020,08,06,09,30,9.60
2020,08,06,09,31,16.10
2020,08,06,09,32,15.90
2020,08,06,09,33,22.50
2020,08,06,09,34,14.60
2020,08,06,09,35,20.00
2020,08,06,09,36,13.10
2020,08,06,09,37,10.00
2020,08,06,09,38,6.30
2020,08,06,09,39,13.60
2020,08,06,09,40,12.60
2020,08,06,09,41,14.90
2020,08,06,09,42,10.80
2020,08,06,09,43,22.40
2020,08,06,09,44,10.70
2020,08,06,09,45,15.10
2020,08,06,09,46,15.60
2020,08,06,09,47,16.90
2020,08,06,09,48,17.40
2020,08,06,09,49,22.60
2020,08,06,09,50,11.70
2020,08,06,09,51,16.50
2020,08,06,09,52,18.70
2020,08,06,09,53,15.90
2020,08,06,09,54,14.80
2020,08,06,09,55,9.50
2020,08,06,09,56,11.30
2020,08,06,09,57,18.30
2020,08,06,09,58,19.30
2020,08,06,09,59,13.40
2020,08,06,10,00,14.30
2020,08,06,10,01,23.80
2020,08,06,10,02,13.50
2020,08,06,10,03,14.80
2020,08,06,10,04,13.50
2020,08,06,10,05,19.20
2020,08,06,10,06,14.90
2020,08,06,10,07,13.00
2020,08,06,10,08,13.60
2020,08,06,10,09,18.50
2020,08,06,10,10,15.10
2020,08,06,10,11,21.20
2020,08,06,10,12,16.70
2020,08,06,10,13,6.20
2020,08,06,10,14,7.00
2020,08,06,10,15,7.10
2020,08,06,10,16,12.20
2020,08,06,10,17,11.60
2020,08,06,10,18,9.40
2020,08,06,10,19,9.70
2020,08,06,10,20,10.20
2020,08,06,10,21,12.60
2020,08,06,10,22,8.90
2020,08,06,10,23,10.50
2020,08,06,10,24,11.10
2020,08,06,10,25,17.90
2020,08,06,10,26,8.90
2020,08,06,10,27,15.70
2020,08,06,10,28,15.70
2020,08,06,10,29,16.30
2020,08,06,10,30,11.60
2020,08,06,10,31,9.20
2020,08,06,10,32,6.00
2020,08,06,10,33,13.60
2020,08,06,10,34,6.80
2020,08,06,10,35,14.40
2020,08,06,10,36,10.80
2020,08,06,10,37,6.60
2020,08,06,10,38,12.40
2020,08,06,10,39,8.40
2020,08,06,10,40,8.90
2020,08,06,10,41,9.50
2020,08,06,10,42,10.30
2020,08,06,10,43,10.50
2020,08,06,10,44,6.80
2020,08,06,10,45,12.60
2020,08,06,10,46,10.10
2020,08,06,10,47,8.70
2020,08,06,10,48,11.70
2020,08,06,10,49,17.80
2020,08,06,10,50,8.70
2020,08,06,10,51,15.00
2020,08,06,10,52,16.80
2020,08,06,10,53,12.60
2020,08,06,10,54,8.20
2020,08,06,10,55,16.20
2020,08,06,10,56,10.80
2020,08,06,10,57,8.90
2020,08,06,10,58,8.40
2020,08,06,10,59,11.60
2020,08,06,11,00,9.80
2020,08,06,11,01,12.20
2020,08,06,11,02,13.60
2020,08,06,11,03,10.00
2020,08,06,11,04,14.20
2020,08,06,11,05,10.30
2020,08,06,11,06,7.00
2020,08,06,11,07,3.50
2020,08,06,11,08,7.90
2020,08,06,11,09,12.60
2020,08,06,11,10,12.40
2020,08,06,11,11,12.00
2020,08,06,11,12,15.00
2020,08,06,11,13,8.40
2020,08,06,11,14,18.10
2020,08,06,11,15,16.50
2020,08,06,11,16,13.50
2020,08,06,11,17,9.10
2020,08,06,11,18,15.90
2020,08,06,11,19,15.90
2020,08,06,11,20,8.20
2020,08,06,11,21,12.70
2020,08,06,11,22,13.60
2020,08,06,11,23,11.80
2020,08,06,11,24,14.30
2020,08,06,11,25,19.30
2020,08,06,11,26,16.40
2020,08,06,11,27,6.60
2020,08,06,11,28,7.00
2020,08,06,11,29,10.10
2020,08,06,11,30,16.40
2020,08,06,11,31,14.60
2020,08,06,11,32,13.10
2020,08,06,11,33,10.30
2020,08,06,11,34,10.50
2020,08,06,11,35,7.90
2020,08,06,11,36,7.70
2020,08,06,11,37,8.80
2020,08,06,11,38,16.20
2020,08,06,11,39,8.80
2020,08,06,11,40,9.30
2020,08,06,11,41,11.30
2020,08,06,11,42,12.00
2020,08,06,11,43,9.50
2020,08,06,11,44,9.70
2020,08,06,11,45,17.40
2020,08,06,11,46,11.20
2020,08,06,11,47,6.90
2020,08,06,11,48,10.40
2020,08,06,11,49,11.80
2020,08,06,11,50,8.70
2020,08,06,11,51,21.20
2020,08,06,11,52,13.60
2020,08,06,11,53,16.90
2020,08,06,11,54,14.60
2020,08,06,11,55,11.30
2020,08,06,11,56,13.50
2020,08,06,11,57,8.80
2020,08,06,11,58,6.80
2020,08,06,11,59,9.30
2020,08,06,12,00,8.00
2020,08,06,12,01,6.40
2020,08,06,12,02,10.70
2020,08,06,12,03,6.10
2020,08,06,12,04,9.80
2020,08,06,12,05,14.30
2020,08,06,12,06,12.40
2020,08,06,12,07,12.00
2020,08,06,12,08,15.60
2020,08,06,12,09,12.60
2020,08,06,12,10,8.40
2020,08,06,12,11,15.50
2020,08,06,12,12,14.60
2020,08,06,12,13,14.30
2020,08,06,12,14,15.20
2020,08,06,12,15,12.80
2020,08,06,12,16,12.50
2020,08,06,12,17,10.20
2020,08,06,12,18,7.60
2020,08,06,12,19,10.60
2020,08,06,12,20,11.00
2020,08,06,12,21,9.00
2020,08,06,12,22,10.80
2020,08,06,12,23,20.50
2020,08,06,12,24,14.00
2020,08,06,12,25,9.30
2020,08,06,12,26,15.20
2020,08,06,12,27,9.70
2020,08,06,12,28,12.50
2020,08,06,12,29,12.40
2020,08,06,12,30,14.30
2020,08,06,12,31,12.90
2020,08,06,12,32,17.60
2020,08,06,12,33,11.40
2020,08,06,12,34,11.90
2020,08,06,12,35,14.10
2020,08,06,12,36,12.00
2020,08,06,12,37,10.60
2020,08,06,12,38,18.10
2020,08,06,12,39,15.30
2020,08,06,12,40,15.10
2020,08,06,12,41,15.50
2020,08,06,12,42,10.20
2020,08,06,12,43,10.60
2020,08,06,12,44,16.20
2020,08,06,12,45,15.70
2020,08,06,12,46,15.40
2020,08,06,12,47,10.50
2020,08,06,12,48,17.50
2020,08,06,12,49,13.90
2020,08,06,12,50,9.80
2020,08,06,12,51,13.30
2020,08,06,12,52,11.30
2020,08,06,12,53,12.80
2020,08,06,12,54,10.90
2020,08,06,12,55,15.50
2020,08,06,12,56,13.00
2020,08,06,12,57,10.00
2020,08,06,12,58,9.20
2020,08,06,12,59,8.30
2020,08,06,13,00,9.60
2020,08,06,13,01,6.80
2020,08,06,13,02,10.30
2020,08,06,13,03,8.40
2020,08,06,13,04,7.10
2020,08,06,13,05,10.60
2020,08,06,13,06,12.00
2020,08,06,13,07,14.20
2020,08,06,13,08,11.50
2020,08,06,13,09,7.70
2020,08,06,13,10,11.90
2020,08,06,13,11,7.90
2020,08,06,13,12,9.80
2020,08,06,13,13,7.60
2020,08,06,13,14,9.60
2020,08,06,13,15,6.40
2020,08,06,13,16,8.60
2020,08,06,13,17,15.60
2020,08,06,13,18,16.70
2020,08,06,13,19,11.40
2020,08,06,13,20,12.50
2020,08,06,13,21,16.20
2020,08,06,13,22,15.00
2020,08,06,13,23,12.90
2020,08,06,13,24,10.30
2020,08,06,13,25,12.90
2020,08,06,13,26,13.30
2020,08,06,13,27,9.90
2020,08,06,13,28,8.90
2020,08,06,13,29,11.80
2020,08,06,13,30,21.30
2020,08,06,13,31,12.60
2020,08,06,13,32,10.50
2020,08,06,13,33,8.80
2020,08,06,13,34,13.70
2020,08,06,13,35,12.40
2020,08,06,13,36,10.80
2020,08,06,13,37,14.80
2020,08,06,13,38,15.40
2020,08,06,13,39,18.80
2020,08,06,13,40,7.50
2020,08,06,13,41,12.60
2020,08,06,13,42,15.80
2020,08,06,13,43,7.80
2020,08,06,13,44,8.50
2020,08,06,13,45,9.10
2020,08,06,13,46,13.40
2020,08,06,13,47,13.20
2020,08,06,13,48,7.80
2020,08,06,13,49,6.80
2020,08,06,13,50,11.20
2020,08,06,13,51,15.50
2020,08,06,13,52,10.60
2020,08,06,13,53,9.10
2020,08,06,13,54,12.20
2020,08,06,13,55,13.30
2020,08,06,13,56,13.80
2020,08,06,13,57,10.80
2020,08,06,13,58,14.20
2020,08,06,13,59,11.00
2020,08,06,14,00,16.10
2020,08,06,14,01,9.30
2020,08,06,14,02,9.90
2020,08,06,14,03,12.10
2020,08,06,14,04,12.20
2020,08,06,14,05,6.50
2020,08,06,14,06,13.30
2020,08,06,14,07,8.40
2020,08,06,14,08,19.80
2020,08,06,14,09,16.10
2020,08,06,14,10,10.30
2020,08,06,14,11,6.70
2020,08,06,14,12,7.70
2020,08,06,14,13,12.10
2020,08,06,14,14,9.80
2020,08,06,14,15,5.40
2020,08,06,14,16,5.10
2020,08,06,14,17,7.00
2020,08,06,14,18,8.10
2020,08,06,14,19,4.40
2020,08,06,14,20,9.00
2020,08,06,14,21,11.50
2020,08,06,14,22,13.10
2020,08,06,14,23,6.90
2020,08,06,14,24,9.70
2020,08,06,14,25,9.10
2020,08,06,14,26,6.90
2020,08,06,14,27,11.10
2020,08,06,14,28,10.00
2020,08,06,14,29,6.40
2020,08,06,14,30,9.70
2020,08,06,14,31,8.50
2020,08,06,14,32,6.90
2020,08,06,14,33,11.60
2020,08,06,14,34,11.30
2020,08,06,14,35,13.10
2020,08,06,14,36,9.70
2020,08,06,14,37,13.10
2020,08,06,14,38,10.80
2020,08,06,14,39,13.60
2020,08,06,14,40,16.10
2020,08,06,14,41,13.40
2020,08,06,14,42,14.90
2020,08,06,14,43,17.20
2020,08,06,14,44,13.30
2020,08,06,14,45,19.70
2020,08,06,14,46,17.20
2020,08,06,14,47,14.00
2020,08,06,14,48,9.80
2020,08,06,14,49,11.80
2020,08,06,14,50,7.10
2020,08,06,14,51,15.20
2020,08,06,14,52,17.40
2020,08,06,14,53,17.90
2020,08,06,14,54,12.60
2020,08,06,14,55,10.50
2020,08,06,14,56,8.90
2020,08,06,14,57,15.50
2020,08,06,14,58,20.60
2020,08,06,14,59,23.80
2020,08,06,15,00,21.50
2020,08,06,15,01,20.20
2020,08,06,15,02,16.50
2020,08,06,15,03,13.40
2020,08,06,15,04,19.20
2020,08,06,15,05,11.60
2020,08,06,15,06,18.30
2020,08,06,15,07,20.00
2020,08,06,15,08,13.80
2020,08,06,15,09,17.40
2020,08,06,15,10,11.00
2020,08,06,15,11,20.80
2020,08,06,15,12,17.50
2020,08,06,15,13,24.50
2020,08,06,15,14,23.40
2020,08,06,15,15,20.70
2020,08,06,15,16,17.50
2020,08,06,15,17,21.80
2020,08,06,15,18,18.20
2020,08,06,15,19,15.30
2020,08,06,15,20,24.20
2020,08,06,15,21,25.00
2020,08,06,15,22,18.10
2020,08,06,15,23,17.80
2020,08,06,15,24,14.50
2020,08,06,15,25,29.40
2020,08,06,15,26,26.20
2020,08,06,15,27,18.50
2020,08,06,15,28,14.20
2020,08,06,15,29,10.80
2020,08,06,15,30,16.60
2020,08,06,15,31,10.80
2020,08,06,15,32,19.40
2020,08,06,15,33,21.90
2020,08,06,15,34,19.30
2020,08,06,15,35,15.30
2020,08,06,15,36,16.30
2020,08,06,15,37,13.40
2020,08,06,15,38,15.20
2020,08,06,15,39,19.90
2020,08,06,15,40,21.20
2020,08,06,15,41,12.10
2020,08,06,15,42,15.30
2020,08,06,15,43,19.00
2020,08,06,15,44,19.20
2020,08,06,15,45,14.80
2020,08,06,15,46,13.10
2020,08,06,15,47,16.20
2020,08,06,15,48,26.50
2020,08,06,15,49,19.40
2020,08,06,15,50,23.60
2020,08,06,15,51,12.90
2020,08,06,15,52,15.00
2020,08,06,15,53,15.40
2020,08,06,15,54,18.90
2020,08,06,15,55,21.10
2020,08,06,15,56,22.10
2020,08,06,15,57,20.00
2020,08,06,15,58,17.20
2020,08,06,15,59,24.60
2020,08,06,16,00,23.00
2020,08,06,16,01,16.50
2020,08,06,16,02,15.80
2020,08,06,16,03,24.30
2020,08,06,16,04,22.60
2020,08,06,16,05,16.60
2020,08,06,16,06,20.40
2020,08,06,16,07,22.60
2020,08,06,16,08,20.00
2020,08,06,16,09,27.00
2020,08,06,16,10,13.40
2020,08,06,16,11,14.20
2020,08,06,16,12,9.00
2020,08,06,16,13,11.20
2020,08,06,16,14,11.20
2020,08,06,16,15,17.90
2020,08,06,16,16,10.40
2020,08,06,16,17,12.80
2020,08,06,16,18,11.70
2020,08,06,16,19,12.30
2020,08,06,16,20,9.20
2020,08,06,16,21,14.70
2020,08,06,16,22,16.70
2020,08,06,16,23,13.00
2020,08,06,16,24,16.40
2020,08,06,16,25,20.20
2020,08,06,16,26,17.20
2020,08,06,16,27,11.90
2020,08,06,16,28,14.80
2020,08,06,16,29,14.40
2020,08,06,16,30,11.30
2020,08,06,16,31,9.20
2020,08,06,16,32,9.70
2020,08,06,16,33,14.90
2020,08,06,16,34,15.30
2020,08,06,16,35,11.60
2020,08,06,16,36,7.60
2020,08,06,16,37,11.20
2020,08,06,16,38,16.80
2020,08,06,16,39,13.70
2020,08,06,16,40,10.40
2020,08,06,16,41,11.80
2020,08,06,16,42,10.00
2020,08,06,16,43,12.50
2020,08,06,16,44,12.90
2020,08,06,16,45,13.60
2020,08,06,16,46,12.20
2020,08,06,16,47,6.00
2020,08,06,16,48,10.90
2020,08,06,16,49,13.60
2020,08,06,16,50,17.80
2020,08,06,16,51,17.60
2020,08,06,16,52,14.80
2020,08,06,16,53,16.10
2020,08,06,16,54,18.40
2020,08,06,16,55,18.30
2020,08,06,16,56,21.20
2020,08,06,16,57,20.20
2020,08,06,16,58,8.90
2020,08,06,16,59,9.40
2020,08,06,17,00,13.40
2020,08,06,17,01,20.00
2020,08,06,17,02,14.60
2020,08,06,17,03,14.90
2020,08,06,17,04,15.80
2020,08,06,17,05,19.20
2020,08,06,17,06,8.90
2020,08,06,17,07,19.40
2020,08,06,17,08,16.50
2020,08,06,17,09,11.50
2020,08,06,17,10,14.60
2020,08,06,17,11,6.50
2020,08,06,17,12,13.80
2020,08,06,17,13,15.90
2020,08,06,17,14,21.40
2020,08,06,17,15,21.10
2020,08,06,17,16,15.20
2020,08,06,17,17,14.50
2020,08,06,17,18,11.30
2020,08,06,17,19,19.60
2020,08,06,17,20,13.10
2020,08,06,17,21,13.40
2020,08,06,17,22,26.00
2020,08,06,17,23,16.90
2020,08,06,17,24,18.70
2020,08,06,17,25,19.90
2020,08,06,17,26,15.50
2020,08,06,17,27,13.50
2020,08,06,17,28,11.20
2020,08,06,17,29,11.30
2020,08,06,17,30,7.30
2020,08,06,17,31,12.20
2020,08,06,17,32,10.50
2020,08,06,17,33,16.30
2020,08,06,17,34,12.00
2020,08,06,17,35,13.20
2020,08,06,17,36,6.70
2020,08,06,17,37,5.10
2020,08,06,17,38,6.90
2020,08,06,17,39,5.20
2020,08,06,17,40,13.50
2020,08,06,17,41,10.10
2020,08,06,17,42,9.70
2020,08,06,17,43,11.00
2020,08,06,17,44,12.90
2020,08,06,17,45,10.80
2020,08,06,17,46,11.70
2020,08,06,17,47,7.40